Time,TemperatureF,DewpointF,PressureIn,WindDirection,WindDirectionDegrees,WindSpeedMPH,WindSpeedGustMPH,Humidity,HourlyPrecipIn,Conditions,Clouds,dailyrainin,SoftwareType,DateUTC
2013-07-26 00:00:00,70.9,65.1,29.88,SSE,161,0.0,0.0,82,0.00,,,0.00,VWS V14.01,2013-07-26 05:00:00,
2013-07-26 00:04:00,71.0,65.2,29.88,SSE,161,0.0,0.0,82,0.00,,CLR,0.00,VWS V14.01,2013-07-26 05:04:00,
2013-07-26 00:09:00,71.1,65.3,29.88,SSE,161,0.0,0.0,82,0.00,,CLR,0.00,VWS V14.01,2013-07-26 05:09:00,
2013-07-26 00:14:00,71.1,65.3,29.88,SSE,161,0.0,0.0,82,0.00,,CLR,0.00,VWS V14.01,2013-07-26 05:14:00,
2013-07-26 00:19:00,71.1,65.0,29.88,SSE,161,0.0,0.0,81,0.00,,CLR,0.00,VWS V14.01,2013-07-26 05:19:00,
2013-07-26 00:24:00,71.0,65.2,29.87,SSE,161,0.0,0.0,82,0.00,,CLR,0.00,VWS V14.01,2013-07-26 05:24:00,
2013-07-26 00:29:00,71.0,65.2,29.87,SSE,161,0.0,0.0,82,0.00,,CLR,0.00,VWS V14.01,2013-07-26 05:29:00,
2013-07-26 00:30:00,71.0,65.2,29.87,SSE,161,0.0,0.0,82,0.00,,,0.00,VWS V14.01,2013-07-26 05:30:00,
2013-07-26 00:34:00,71.0,64.9,29.87,SSE,161,0.0,0.0,81,0.00,,CLR,0.00,VWS V14.01,2013-07-26 05:34:00,
2013-07-26 00:39:00,71.0,64.9,29.87,SSE,161,0.0,0.0,81,0.00,,CLR,0.00,VWS V14.01,2013-07-26 05:39:00,
2013-07-26 00:44:00,71.0,64.9,29.87,SSE,161,0.0,0.0,81,0.00,,CLR,0.00,VWS V14.01,2013-07-26 05:44:00,
2013-07-26 00:49:00,71.0,64.9,29.87,SSE,161,0.0,0.0,81,0.00,,CLR,0.00,VWS V14.01,2013-07-26 05:49:00,
2013-07-26 00:55:00,71.0,64.9,29.87,SSE,161,0.0,0.0,81,0.00,,CLR,0.00,VWS V14.01,2013-07-26 05:55:00,
2013-07-26 01:00:00,70.9,64.8,29.87,SSE,161,0.0,0.0,81,0.00,,CLR,0.00,VWS V14.01,2013-07-26 06:00:00,
2013-07-26 01:05:00,71.0,64.9,29.87,SSE,161,0.0,0.0,81,0.00,,CLR,0.00,VWS V14.01,2013-07-26 06:05:00,
2013-07-26 01:10:00,70.9,64.8,29.87,SSE,161,0.0,0.0,81,0.00,,CLR,0.00,VWS V14.01,2013-07-26 06:10:00,
2013-07-26 01:15:00,70.8,64.7,29.87,SSE,161,0.0,0.0,81,0.00,,CLR,0.00,VWS V14.01,2013-07-26 06:15:00,
2013-07-26 01:20:00,70.7,64.6,29.86,SSE,161,0.0,0.0,81,0.00,,CLR,0.00,VWS V14.01,2013-07-26 06:20:00,
2013-07-26 01:25:00,70.5,64.8,29.86,SSE,161,0.0,0.0,82,0.00,,CLR,0.00,VWS V14.01,2013-07-26 06:25:00,
2013-07-26 01:30:00,70.3,64.6,29.86,SSE,161,0.0,0.0,82,0.00,,CLR,0.00,VWS V14.01,2013-07-26 06:30:00,
2013-07-26 01:35:00,70.1,64.7,29.86,SSE,161,0.0,0.0,83,0.00,,CLR,0.00,VWS V14.01,2013-07-26 06:35:00,
2013-07-26 01:40:00,69.9,64.8,29.86,SSE,161,0.0,0.0,84,0.00,,CLR,0.00,VWS V14.01,2013-07-26 06:40:00,
2013-07-26 01:46:00,69.7,64.7,29.85,SSE,161,0.0,0.0,84,0.00,,CLR,0.00,VWS V14.01,2013-07-26 06:46:00,
2013-07-26 01:51:00,69.5,64.5,29.86,SSE,161,0.0,0.0,84,0.00,,CLR,0.00,VWS V14.01,2013-07-26 06:51:00,
2013-07-26 01:56:00,69.4,64.7,29.85,SSE,161,0.0,0.0,85,0.00,,CLR,0.00,VWS V14.01,2013-07-26 06:56:00,
2013-07-26 02:00:00,69.2,64.5,29.86,SSE,161,0.0,0.0,85,0.00,,,0.00,VWS V14.01,2013-07-26 07:00:00,
2013-07-26 02:01:00,69.2,64.5,29.86,SSE,161,0.0,0.0,85,0.00,,CLR,0.00,VWS V14.01,2013-07-26 07:01:00,
2013-07-26 02:06:00,68.9,64.6,29.86,SSE,161,0.0,0.0,86,0.00,,CLR,0.00,VWS V14.01,2013-07-26 07:06:00,
2013-07-26 02:11:00,68.7,64.3,29.86,SSE,161,0.0,1.0,86,0.00,,CLR,0.00,VWS V14.01,2013-07-26 07:11:00,
2013-07-26 02:16:00,68.6,64.2,29.86,SSE,161,0.0,1.0,86,0.00,,CLR,0.00,VWS V14.01,2013-07-26 07:16:00,
2013-07-26 02:22:00,68.5,64.2,29.86,SSE,161,0.0,1.0,86,0.00,,CLR,0.00,VWS V14.01,2013-07-26 07:22:00,
2013-07-26 02:27:00,68.4,64.4,29.86,SSE,161,0.0,1.0,87,0.00,,CLR,0.00,VWS V14.01,2013-07-26 07:27:00,
2013-07-26 02:30:00,68.4,64.4,29.86,SSE,161,0.0,1.0,87,0.00,,,0.00,VWS V14.01,2013-07-26 07:30:00,
2013-07-26 02:32:00,68.3,64.3,29.87,SSE,161,0.0,0.0,87,0.00,,CLR,0.00,VWS V14.01,2013-07-26 07:32:00,
2013-07-26 02:37:00,68.2,64.5,29.87,SSE,161,0.0,0.0,88,0.00,,CLR,0.00,VWS V14.01,2013-07-26 07:37:00,
2013-07-26 02:42:00,68.0,64.3,29.87,SSE,161,0.0,0.0,88,0.00,,CLR,0.00,VWS V14.01,2013-07-26 07:42:00,
2013-07-26 02:47:00,67.9,64.2,29.86,SSE,161,0.0,0.0,88,0.00,,CLR,0.00,VWS V14.01,2013-07-26 07:47:00,
2013-07-26 02:52:00,67.7,64.0,29.86,SSE,161,0.0,0.0,88,0.00,,CLR,0.00,VWS V14.01,2013-07-26 07:52:00,
2013-07-26 02:57:00,67.6,64.2,29.85,SSE,161,0.0,0.0,89,0.00,,CLR,0.00,VWS V14.01,2013-07-26 07:57:00,
2013-07-26 03:00:00,67.6,64.2,29.85,SSE,161,0.0,0.0,89,0.00,,,0.00,VWS V14.01,2013-07-26 08:00:00,
2013-07-26 03:02:00,67.5,64.2,29.85,SSE,161,0.0,0.0,89,0.00,,CLR,0.00,VWS V14.01,2013-07-26 08:02:00,
2013-07-26 03:07:00,67.4,64.1,29.85,SSE,161,0.0,0.0,89,0.00,,CLR,0.00,VWS V14.01,2013-07-26 08:07:00,
2013-07-26 03:12:00,67.3,64.0,29.85,SSE,161,0.0,0.0,89,0.00,,CLR,0.00,VWS V14.01,2013-07-26 08:12:00,
2013-07-26 03:17:00,67.2,64.2,29.85,SSE,161,0.0,0.0,90,0.00,,CLR,0.00,VWS V14.01,2013-07-26 08:17:00,
2013-07-26 03:22:00,67.1,64.1,29.84,SSE,161,0.0,0.0,90,0.00,,CLR,0.00,VWS V14.01,2013-07-26 08:22:00,
2013-07-26 03:27:00,67.0,64.0,29.85,SSE,161,0.0,0.0,90,0.00,,CLR,0.00,VWS V14.01,2013-07-26 08:27:00,
2013-07-26 03:30:00,67.0,64.0,29.85,SSE,161,0.0,0.0,90,0.00,,,0.00,VWS V14.01,2013-07-26 08:30:00,
2013-07-26 03:33:00,66.9,63.9,29.85,SSE,161,0.0,0.0,90,0.00,,CLR,0.00,VWS V14.01,2013-07-26 08:33:00,
2013-07-26 03:38:00,66.8,63.8,29.85,SSE,161,0.0,0.0,90,0.00,,CLR,0.00,VWS V14.01,2013-07-26 08:38:00,
2013-07-26 03:43:00,66.8,64.1,29.85,SSE,161,0.0,0.0,91,0.00,,CLR,0.00,VWS V14.01,2013-07-26 08:43:00,
2013-07-26 03:48:00,66.7,64.0,29.84,SSE,161,0.0,0.0,91,0.00,,CLR,0.00,VWS V14.01,2013-07-26 08:48:00,
2013-07-26 03:53:00,66.7,64.0,29.84,SSE,161,0.0,0.0,91,0.00,,CLR,0.00,VWS V14.01,2013-07-26 08:53:00,
2013-07-26 03:58:00,66.7,64.0,29.84,SSE,161,0.0,0.0,91,0.00,,CLR,0.00,VWS V14.01,2013-07-26 08:58:00,
2013-07-26 04:00:00,66.7,64.0,29.84,SSE,161,0.0,0.0,91,0.00,,,0.00,VWS V14.01,2013-07-26 09:00:00,
2013-07-26 04:03:00,66.7,64.0,29.84,SSE,161,0.0,0.0,91,0.00,,CLR,0.00,VWS V14.01,2013-07-26 09:03:00,
2013-07-26 04:08:00,66.6,63.9,29.84,SSE,161,0.0,0.0,91,0.00,,CLR,0.00,VWS V14.01,2013-07-26 09:08:00,
2013-07-26 04:13:00,66.6,63.9,29.84,SSE,161,0.0,0.0,91,0.00,,CLR,0.00,VWS V14.01,2013-07-26 09:13:00,
2013-07-26 04:18:00,66.5,63.8,29.84,SSE,161,0.0,0.0,91,0.00,,CLR,0.00,VWS V14.01,2013-07-26 09:18:00,
2013-07-26 04:23:00,66.5,64.1,29.84,SSE,161,0.0,0.0,92,0.00,,CLR,0.00,VWS V14.01,2013-07-26 09:23:00,
2013-07-26 04:28:00,66.4,64.0,29.84,SSE,161,0.0,0.0,92,0.00,,CLR,0.00,VWS V14.01,2013-07-26 09:28:00,
2013-07-26 04:30:00,66.4,64.0,29.84,SSE,161,0.0,0.0,92,0.00,,,0.00,VWS V14.01,2013-07-26 09:30:00,
2013-07-26 04:33:00,66.3,63.9,29.84,SSE,161,0.0,0.0,92,0.00,,CLR,0.00,VWS V14.01,2013-07-26 09:33:00,
2013-07-26 04:38:00,66.3,63.9,29.84,SSE,161,0.0,0.0,92,0.00,,CLR,0.00,VWS V14.01,2013-07-26 09:38:00,
2013-07-26 04:43:00,66.3,63.9,29.84,SSE,161,0.0,0.0,92,0.00,,CLR,0.00,VWS V14.01,2013-07-26 09:43:00,
2013-07-26 04:48:00,66.3,63.9,29.85,SSE,161,0.0,0.0,92,0.00,,CLR,0.00,VWS V14.01,2013-07-26 09:48:00,
2013-07-26 04:53:00,66.2,63.8,29.85,SSE,161,0.0,0.0,92,0.00,,CLR,0.00,VWS V14.01,2013-07-26 09:53:00,
2013-07-26 04:58:00,66.3,63.9,29.85,SSE,161,0.0,0.0,92,0.00,,CLR,0.00,VWS V14.01,2013-07-26 09:58:00,
2013-07-26 05:00:00,66.3,63.9,29.85,SSE,161,0.0,0.0,92,0.00,,CLR,0.00,VWS V14.01,2013-07-26 10:00:00,
2013-07-26 05:04:00,66.3,63.9,29.85,SSE,161,0.0,0.0,92,0.00,,CLR,0.00,VWS V14.01,2013-07-26 10:04:00,
2013-07-26 05:09:00,66.4,64.0,29.85,SSE,161,0.0,0.0,92,0.00,,CLR,0.00,VWS V14.01,2013-07-26 10:09:00,
2013-07-26 05:14:00,66.4,64.0,29.85,SSE,161,0.0,0.0,92,0.00,,CLR,0.00,VWS V14.01,2013-07-26 10:14:00,
2013-07-26 05:19:00,66.6,63.9,29.85,SSE,161,0.0,0.0,91,0.00,,CLR,0.00,VWS V14.01,2013-07-26 10:19:00,
2013-07-26 05:24:00,66.7,64.0,29.85,SSE,161,0.0,0.0,91,0.00,,CLR,0.00,VWS V14.01,2013-07-26 10:24:00,
2013-07-26 05:29:00,66.9,63.9,29.85,SSE,161,0.0,0.0,90,0.00,,CLR,0.00,VWS V14.01,2013-07-26 10:29:00,
2013-07-26 05:30:00,66.9,63.9,29.85,SSE,161,0.0,0.0,90,0.00,,,0.00,VWS V14.01,2013-07-26 10:30:00,
2013-07-26 05:34:00,67.0,64.0,29.86,SSE,161,0.0,0.0,90,0.00,,CLR,0.00,VWS V14.01,2013-07-26 10:34:00,
2013-07-26 05:39:00,67.1,63.8,29.85,SSE,161,0.0,0.0,89,0.00,,CLR,0.00,VWS V14.01,2013-07-26 10:39:00,
2013-07-26 05:44:00,67.2,63.8,29.86,SSE,161,0.0,0.0,89,0.00,,CLR,0.00,VWS V14.01,2013-07-26 10:44:00,
2013-07-26 05:49:00,67.2,63.8,29.86,SSE,161,0.0,0.0,89,0.00,,CLR,0.00,VWS V14.01,2013-07-26 10:49:00,
2013-07-26 05:54:00,67.2,63.8,29.86,SSE,161,0.0,0.0,89,0.00,,CLR,0.00,VWS V14.01,2013-07-26 10:54:00,
2013-07-26 06:00:00,67.2,63.8,29.86,SSE,161,0.0,0.0,89,0.00,,CLR,0.00,VWS V14.01,2013-07-26 11:00:00,
2013-07-26 06:05:00,67.2,63.8,29.86,SSE,161,0.0,0.0,89,0.00,,CLR,0.00,VWS V14.01,2013-07-26 11:05:00,
2013-07-26 06:10:00,67.1,63.8,29.86,SSE,161,0.0,0.0,89,0.00,,CLR,0.00,VWS V14.01,2013-07-26 11:10:00,
2013-07-26 06:15:00,67.1,63.8,29.87,SSE,161,0.0,1.0,89,0.00,,CLR,0.00,VWS V14.01,2013-07-26 11:15:00,
2013-07-26 06:20:00,67.1,63.8,29.86,SSE,161,0.0,1.0,89,0.00,,CLR,0.00,VWS V14.01,2013-07-26 11:20:00,
2013-07-26 06:25:00,67.1,63.8,29.86,SSE,161,0.0,1.0,89,0.00,,CLR,0.00,VWS V14.01,2013-07-26 11:25:00,
2013-07-26 06:30:00,67.1,64.1,29.86,SSE,163,0.0,0.0,90,0.00,,CLR,0.00,VWS V14.01,2013-07-26 11:30:00,
2013-07-26 06:35:00,67.1,63.8,29.86,SSE,163,0.0,0.0,89,0.00,,CLR,0.00,VWS V14.01,2013-07-26 11:35:00,
2013-07-26 06:40:00,67.2,64.2,29.86,SSE,163,0.0,0.0,90,0.00,,CLR,0.00,VWS V14.01,2013-07-26 11:40:00,
2013-07-26 06:45:00,67.2,64.2,29.86,SSE,163,0.0,0.0,90,0.00,,CLR,0.00,VWS V14.01,2013-07-26 11:45:00,
2013-07-26 06:50:00,67.2,63.8,29.86,SSE,163,0.0,0.0,89,0.00,,CLR,0.00,VWS V14.01,2013-07-26 11:50:00,
2013-07-26 06:55:00,67.2,63.8,29.85,SSE,163,0.0,0.0,89,0.00,,CLR,0.00,VWS V14.01,2013-07-26 11:55:00,
2013-07-26 07:00:00,67.2,63.8,29.85,SSE,163,0.0,0.0,89,0.00,,CLR,0.00,VWS V14.01,2013-07-26 12:00:00,
2013-07-26 07:06:00,67.2,63.8,29.86,SSE,163,0.0,0.0,89,0.00,,CLR,0.00,VWS V14.01,2013-07-26 12:06:00,
2013-07-26 07:11:00,67.3,64.0,29.86,SSE,163,0.0,0.0,89,0.00,,CLR,0.00,VWS V14.01,2013-07-26 12:11:00,
2013-07-26 07:16:00,67.3,64.0,29.85,South,174,0.0,1.0,89,0.00,,CLR,0.00,VWS V14.01,2013-07-26 12:16:00,
2013-07-26 07:17:00,67.3,64.0,29.85,South,174,0.0,1.0,89,0.00,,CLR,0.00,VWS V14.01,2013-07-26 12:17:00,
2013-07-26 07:22:00,67.3,64.0,29.86,South,174,0.0,1.0,89,0.00,,CLR,0.00,VWS V14.01,2013-07-26 12:22:00,
2013-07-26 07:27:00,67.4,64.1,29.86,SSE,165,0.0,1.0,89,0.00,,CLR,0.00,VWS V14.01,2013-07-26 12:27:00,
2013-07-26 07:30:00,67.5,63.8,29.86,SSE,165,0.0,1.0,88,0.00,,,0.00,VWS V14.01,2013-07-26 12:30:00,
2013-07-26 07:32:00,67.5,64.2,29.86,SSE,165,0.0,1.0,89,0.00,,CLR,0.00,VWS V14.01,2013-07-26 12:32:00,
2013-07-26 07:37:00,67.6,63.9,29.86,SSE,165,0.0,1.0,88,0.00,,CLR,0.00,VWS V14.01,2013-07-26 12:37:00,
2013-07-26 07:42:00,67.6,63.9,29.86,SSE,165,0.0,1.0,88,0.00,,CLR,0.00,VWS V14.01,2013-07-26 12:42:00,
2013-07-26 07:47:00,67.7,64.0,29.86,SSE,165,0.0,1.0,88,0.00,,CLR,0.00,VWS V14.01,2013-07-26 12:47:00,
2013-07-26 07:52:00,67.7,64.0,29.86,SSE,165,0.0,1.0,88,0.00,,FEW120,0.00,VWS V14.01,2013-07-26 12:52:00,
2013-07-26 07:57:00,67.8,64.1,29.86,SSE,165,0.0,1.0,88,0.00,,FEW120,0.00,VWS V14.01,2013-07-26 12:57:00,
2013-07-26 08:00:00,67.8,64.1,29.86,SSE,165,0.0,1.0,88,0.00,,,0.00,VWS V14.01,2013-07-26 13:00:00,
2013-07-26 08:02:00,67.9,64.2,29.86,SSE,165,0.0,0.0,88,0.00,,FEW120,0.00,VWS V14.01,2013-07-26 13:02:00,
2013-07-26 08:07:00,68.0,64.6,29.85,SSE,165,0.0,0.0,89,0.00,,FEW120,0.00,VWS V14.01,2013-07-26 13:07:00,
2013-07-26 08:12:00,68.1,64.4,29.86,SSE,165,0.0,0.0,88,0.00,,FEW120,0.00,VWS V14.01,2013-07-26 13:12:00,
2013-07-26 08:18:00,68.2,64.8,29.86,SSE,165,0.0,0.0,89,0.00,,FEW120,0.00,VWS V14.01,2013-07-26 13:18:00,
2013-07-26 08:23:00,68.3,64.6,29.86,SSE,162,0.0,0.0,88,0.00,,FEW120,0.00,VWS V14.01,2013-07-26 13:23:00,
2013-07-26 08:28:00,68.5,64.8,29.86,SSE,162,0.0,1.0,88,0.00,,FEW120,0.00,VWS V14.01,2013-07-26 13:28:00,
2013-07-26 08:30:00,68.5,64.8,29.86,SSE,162,0.0,1.0,88,0.00,,CLR,0.00,VWS V14.01,2013-07-26 13:30:00,
2013-07-26 08:33:00,68.6,64.9,29.86,SE,143,0.0,1.0,88,0.00,,FEW120,0.00,VWS V14.01,2013-07-26 13:33:00,
2013-07-26 08:38:00,68.7,65.0,29.87,SE,143,0.0,1.0,88,0.00,,FEW120,0.00,VWS V14.01,2013-07-26 13:38:00,
2013-07-26 08:43:00,68.8,64.8,29.87,SE,143,0.0,1.0,87,0.00,,BKN120,0.00,VWS V14.01,2013-07-26 13:43:00,
2013-07-26 08:48:00,68.8,64.8,29.87,SE,140,0.0,1.0,87,0.00,,BKN120,0.00,VWS V14.01,2013-07-26 13:48:00,
2013-07-26 08:53:00,69.0,65.0,29.87,SSE,147,0.0,1.0,87,0.00,,BKN120,0.00,VWS V14.01,2013-07-26 13:53:00,
2013-07-26 08:58:00,69.0,64.6,29.87,SSE,165,0.0,1.0,86,0.00,,BKN120,0.00,VWS V14.01,2013-07-26 13:58:00,
2013-07-26 09:00:00,69.0,64.6,29.87,SSE,165,0.0,1.0,86,0.00,,,0.00,VWS V14.01,2013-07-26 14:00:00,
2013-07-26 09:03:00,69.1,65.1,29.86,SSE,165,0.0,0.0,87,0.00,,BKN120,0.00,VWS V14.01,2013-07-26 14:03:00,
2013-07-26 09:08:00,69.2,64.8,29.87,SSE,165,0.0,0.0,86,0.00,,BKN120,0.00,VWS V14.01,2013-07-26 14:08:00,
2013-07-26 09:13:00,69.3,65.3,29.86,SSE,165,0.0,0.0,87,0.00,,BKN120,0.00,VWS V14.01,2013-07-26 14:13:00,
2013-07-26 09:18:00,69.5,65.5,29.86,ESE,107,0.0,1.0,87,0.00,,BKN120,0.00,VWS V14.01,2013-07-26 14:18:00,
2013-07-26 09:23:00,69.5,65.1,29.85,SSW,203,0.0,1.0,86,0.00,,BKN120,0.00,VWS V14.01,2013-07-26 14:23:00,
2013-07-26 09:28:00,69.7,65.3,29.86,SSW,203,0.0,1.0,86,0.00,,BKN120,0.00,VWS V14.01,2013-07-26 14:28:00,
2013-07-26 09:30:00,69.7,65.3,29.86,SSW,203,0.0,1.0,86,0.00,,,0.00,VWS V14.01,2013-07-26 14:30:00,
2013-07-26 09:33:00,69.7,65.0,29.85,SSW,196,0.0,1.0,85,0.00,,BKN120,0.00,VWS V14.01,2013-07-26 14:33:00,
2013-07-26 09:39:00,69.8,65.4,29.85,SSW,195,0.0,1.0,86,0.00,,BKN120,0.00,VWS V14.01,2013-07-26 14:39:00,
2013-07-26 09:44:00,69.9,65.2,29.85,South,177,0.0,1.0,85,0.00,,BKN120,0.00,VWS V14.01,2013-07-26 14:44:00,
2013-07-26 09:49:00,70.0,65.3,29.85,SE,130,0.0,1.0,85,0.00,,BKN120,0.00,VWS V14.01,2013-07-26 14:49:00,
2013-07-26 09:54:00,70.0,64.9,29.85,SE,125,0.0,1.0,84,0.00,,BKN120,0.00,VWS V14.01,2013-07-26 14:54:00,
2013-07-26 09:59:00,70.1,65.1,29.85,SE,124,0.0,1.0,84,0.00,,BKN120,0.00,VWS V14.01,2013-07-26 14:59:00,
2013-07-26 10:00:00,70.1,65.1,29.85,SE,124,0.0,1.0,84,0.00,,,0.00,VWS V14.01,2013-07-26 15:00:00,
2013-07-26 10:04:00,70.1,65.1,29.85,SE,124,0.0,0.0,84,0.00,,BKN120,0.00,VWS V14.01,2013-07-26 15:04:00,
2013-07-26 10:09:00,70.2,65.5,29.86,SE,124,0.0,0.0,85,0.00,,BKN120,0.00,VWS V14.01,2013-07-26 15:09:00,
2013-07-26 10:14:00,70.2,65.1,29.86,SE,124,0.0,0.0,84,0.00,,BKN120,0.00,VWS V14.01,2013-07-26 15:14:00,
2013-07-26 10:19:00,70.3,65.6,29.86,SE,146,0.0,1.0,85,0.00,,BKN120,0.00,VWS V14.01,2013-07-26 15:19:00,
2013-07-26 10:24:00,70.3,65.2,29.86,SE,145,0.0,1.0,84,0.00,,BKN120,0.00,VWS V14.01,2013-07-26 15:24:00,
2013-07-26 10:29:00,70.3,65.2,29.86,SE,146,0.0,1.0,84,0.00,,BKN120,0.00,VWS V14.01,2013-07-26 15:29:00,
2013-07-26 10:30:00,70.3,65.2,29.86,SE,146,0.0,1.0,84,0.00,,,0.00,VWS V14.01,2013-07-26 15:30:00,
2013-07-26 10:34:00,70.3,65.2,29.87,SE,146,0.0,0.0,84,0.00,,BKN120,0.00,VWS V14.01,2013-07-26 15:34:00,
2013-07-26 10:39:00,70.4,65.7,29.87,SE,146,0.0,0.0,85,0.00,,BKN120,0.00,VWS V14.01,2013-07-26 15:39:00,
2013-07-26 10:45:00,70.5,65.8,29.87,SE,146,0.0,0.0,85,0.00,,CLR,0.00,VWS V14.01,2013-07-26 15:45:00,
2013-07-26 10:50:00,70.5,65.4,29.87,SE,146,0.0,0.0,84,0.00,,CLR,0.00,VWS V14.01,2013-07-26 15:50:00,
2013-07-26 10:55:00,70.4,65.3,29.88,SE,146,0.0,0.0,84,0.00,,CLR,0.00,VWS V14.01,2013-07-26 15:55:00,
2013-07-26 11:00:00,70.4,65.7,29.88,SE,146,0.0,0.0,85,0.00,,CLR,0.00,VWS V14.01,2013-07-26 16:00:00,
2013-07-26 11:05:00,70.4,66.0,29.88,SE,146,0.0,0.0,86,0.00,,CLR,0.00,VWS V14.01,2013-07-26 16:05:00,
2013-07-26 11:10:00,70.4,65.3,29.88,SE,146,0.0,0.0,84,0.00,,CLR,0.00,VWS V14.01,2013-07-26 16:10:00,
2013-07-26 11:15:00,70.3,65.9,29.88,SE,146,0.0,1.0,86,0.00,,CLR,0.00,VWS V14.01,2013-07-26 16:15:00,
2013-07-26 11:20:00,70.3,65.6,29.88,SE,146,0.0,1.0,85,0.00,,CLR,0.00,VWS V14.01,2013-07-26 16:20:00,
2013-07-26 11:25:00,70.3,66.2,29.88,SE,146,0.0,1.0,87,0.00,,CLR,0.00,VWS V14.01,2013-07-26 16:25:00,
2013-07-26 11:30:00,70.4,66.3,29.88,East,92,0.0,0.0,87,0.00,,CLR,0.00,VWS V14.01,2013-07-26 16:30:00,
2013-07-26 11:35:00,70.4,66.3,29.88,ESE,123,0.0,1.0,87,0.00,,CLR,0.00,VWS V14.01,2013-07-26 16:35:00,
2013-07-26 11:40:00,70.5,66.8,29.88,SE,146,0.0,1.0,88,0.00,,-RA,0.00,VWS V14.01,2013-07-26 16:40:00,
2013-07-26 11:46:00,70.4,66.7,29.88,SE,146,0.0,1.0,88,0.01,,-RA,0.01,VWS V14.01,2013-07-26 16:46:00,
2013-07-26 11:51:00,70.3,66.2,29.88,SSE,148,0.0,1.0,87,0.01,,-RA,0.01,VWS V14.01,2013-07-26 16:51:00,
2013-07-26 11:56:00,70.3,66.9,29.88,SSE,148,0.0,1.0,89,0.01,,-RA,0.01,VWS V14.01,2013-07-26 16:56:00,
2013-07-26 12:00:00,70.2,66.5,29.88,SSE,148,0.0,1.0,88,0.01,,CLR,0.01,VWS V14.01,2013-07-26 17:00:00,
2013-07-26 12:01:00,70.2,66.8,29.88,SSE,148,0.0,1.0,89,0.01,,-RA,0.01,VWS V14.01,2013-07-26 17:01:00,
2013-07-26 12:06:00,70.1,67.0,29.88,SSE,148,0.0,1.0,90,0.01,,-RA,0.01,VWS V14.01,2013-07-26 17:06:00,
2013-07-26 12:11:00,69.8,66.1,29.88,SSE,149,0.0,1.0,88,0.01,,-RA,0.01,VWS V14.01,2013-07-26 17:11:00,
2013-07-26 12:17:00,69.6,65.9,29.88,SSE,150,0.0,1.0,88,0.01,,-RA,0.01,VWS V14.01,2013-07-26 17:17:00,
2013-07-26 12:22:00,69.5,66.1,29.89,SSE,150,0.0,1.0,89,0.01,,-RA,0.01,VWS V14.01,2013-07-26 17:22:00,
2013-07-26 12:27:00,69.3,65.9,29.89,SSE,150,0.0,1.0,89,0.02,,-RA,0.02,VWS V14.01,2013-07-26 17:27:00,
2013-07-26 12:30:00,69.2,65.8,29.89,SSE,150,0.0,1.0,89,0.02,,,0.02,VWS V14.01,2013-07-26 17:30:00,
2013-07-26 12:32:00,69.2,66.2,29.89,SE,146,0.0,0.0,90,0.02,,-RA,0.02,VWS V14.01,2013-07-26 17:32:00,
2013-07-26 12:37:00,69.0,65.6,29.89,SSE,152,0.0,1.0,89,0.02,,-RA,0.02,VWS V14.01,2013-07-26 17:37:00,
2013-07-26 12:42:00,68.8,65.8,29.89,SSE,163,0.0,1.0,90,0.02,,-RA,0.02,VWS V14.01,2013-07-26 17:42:00,
2013-07-26 12:47:00,68.7,65.7,29.89,South,173,0.0,1.0,90,0.03,,-RA,0.03,VWS V14.01,2013-07-26 17:47:00,
2013-07-26 12:52:00,68.5,65.5,29.89,South,173,0.0,1.0,90,0.03,,-RA,0.03,VWS V14.01,2013-07-26 17:52:00,
2013-07-26 12:57:00,68.4,65.7,29.89,South,173,0.0,1.0,91,0.04,,-RA,0.04,VWS V14.01,2013-07-26 17:57:00,
2013-07-26 13:00:00,68.3,65.6,29.89,South,173,0.0,1.0,91,0.04,,,0.04,VWS V14.01,2013-07-26 18:00:00,
2013-07-26 13:02:00,68.1,65.1,29.89,South,173,0.0,0.0,90,0.03,,-RA,0.04,VWS V14.01,2013-07-26 18:02:00,
2013-07-26 13:08:00,67.8,65.4,29.89,South,173,0.0,0.0,92,0.04,,-RA,0.05,VWS V14.01,2013-07-26 18:08:00,
2013-07-26 13:13:00,67.7,65.3,29.89,South,173,0.0,0.0,92,0.05,,-RA,0.06,VWS V14.01,2013-07-26 18:13:00,
2013-07-26 13:18:00,67.5,65.1,29.89,South,173,0.0,1.0,92,0.07,,-RA,0.08,VWS V14.01,2013-07-26 18:18:00,
2013-07-26 13:23:00,67.2,65.1,29.89,South,173,0.0,1.0,93,0.08,,-RA,0.09,VWS V14.01,2013-07-26 18:23:00,
2013-07-26 13:28:00,67.1,65.0,29.89,South,173,0.0,1.0,93,0.09,,-RA,0.10,VWS V14.01,2013-07-26 18:28:00,
2013-07-26 13:30:00,67.1,65.0,29.89,South,173,0.0,1.0,93,0.10,,,0.11,VWS V14.01,2013-07-26 18:30:00,
2013-07-26 13:33:00,67.0,64.9,29.89,South,173,0.0,1.0,93,0.10,,-RA,0.12,VWS V14.01,2013-07-26 18:33:00,
2013-07-26 13:38:00,66.9,65.1,29.89,SSW,192,0.0,1.0,94,0.12,,-RA,0.14,VWS V14.01,2013-07-26 18:38:00,
2013-07-26 13:43:00,66.8,65.0,29.88,WSW,246,1.0,1.0,94,0.14,,RA,0.16,VWS V14.01,2013-07-26 18:43:00,
2013-07-26 13:48:00,66.8,65.3,29.88,South,174,0.0,1.0,95,0.16,,RA,0.18,VWS V14.01,2013-07-26 18:48:00,
2013-07-26 13:53:00,66.8,65.3,29.88,South,174,0.0,1.0,95,0.17,,RA,0.19,VWS V14.01,2013-07-26 18:53:00,
2013-07-26 13:58:00,66.9,65.4,29.88,South,174,0.0,1.0,95,0.19,,RA,0.21,VWS V14.01,2013-07-26 18:58:00,
2013-07-26 14:00:00,66.9,65.4,29.88,South,174,0.0,1.0,95,0.20,,,0.22,VWS V14.01,2013-07-26 19:00:00,
2013-07-26 14:04:00,66.9,65.4,29.88,South,178,0.0,2.0,95,0.19,,RA,0.23,VWS V14.01,2013-07-26 19:04:00,
2013-07-26 14:09:00,66.9,65.4,29.88,SW,216,0.0,2.0,95,0.20,,RA,0.24,VWS V14.01,2013-07-26 19:09:00,
2013-07-26 14:14:00,67.0,65.5,29.88,SW,216,0.0,2.0,95,0.23,,RA,0.27,VWS V14.01,2013-07-26 19:14:00,
2013-07-26 14:19:00,67.0,65.5,29.88,SW,216,0.0,2.0,95,0.24,,RA,0.28,VWS V14.01,2013-07-26 19:19:00,
2013-07-26 14:24:00,67.0,65.5,29.88,SW,216,0.0,2.0,95,0.24,,RA,0.28,VWS V14.01,2013-07-26 19:24:00,
2013-07-26 14:29:00,67.2,66.0,29.87,SW,216,0.0,2.0,96,0.24,,RA,0.28,VWS V14.01,2013-07-26 19:29:00,
2013-07-26 14:30:00,67.2,66.0,29.87,SW,216,0.0,2.0,96,0.24,,,0.28,VWS V14.01,2013-07-26 19:30:00,
2013-07-26 14:34:00,67.4,66.2,29.88,SE,138,0.0,1.0,96,0.17,,RA,0.28,VWS V14.01,2013-07-26 19:34:00,
2013-07-26 14:39:00,67.7,66.5,29.88,South,171,0.0,1.0,96,0.18,,RA,0.29,VWS V14.01,2013-07-26 19:39:00,
2013-07-26 14:44:00,68.0,66.8,29.88,South,171,0.0,1.0,96,0.18,,-RA,0.29,VWS V14.01,2013-07-26 19:44:00,
2013-07-26 14:50:00,68.3,67.1,29.88,South,171,0.0,1.0,96,0.18,,-RA,0.29,VWS V14.01,2013-07-26 19:50:00,
2013-07-26 14:55:00,68.4,67.2,29.88,SSE,163,0.0,2.0,96,0.18,,-RA,0.29,VWS V14.01,2013-07-26 19:55:00,
2013-07-26 15:00:00,68.4,67.2,29.88,SSE,164,0.0,0.0,96,0.07,,-RA,0.29,VWS V14.01,2013-07-26 20:00:00,
2013-07-26 15:05:00,68.4,66.9,29.88,SSE,164,0.0,0.0,95,0.07,,-RA,0.29,VWS V14.01,2013-07-26 20:05:00,
2013-07-26 15:10:00,68.5,67.0,29.88,SSE,164,0.0,0.0,95,0.07,,-RA,0.29,VWS V14.01,2013-07-26 20:10:00,
2013-07-26 15:15:00,68.4,66.9,29.88,SSE,164,0.0,0.0,95,0.07,,-RA,0.29,VWS V14.01,2013-07-26 20:15:00,
2013-07-26 15:20:00,68.3,66.8,29.87,SE,129,0.0,0.0,95,0.07,,-RA,0.29,VWS V14.01,2013-07-26 20:20:00,
2013-07-26 15:25:00,68.4,66.9,29.87,SE,129,0.0,0.0,95,0.07,,-RA,0.29,VWS V14.01,2013-07-26 20:25:00,
2013-07-26 15:30:00,68.4,66.9,29.87,SE,129,0.0,0.0,95,0.01,,-RA,0.29,VWS V14.01,2013-07-26 20:30:00,
2013-07-26 15:35:00,68.3,66.8,29.87,SE,129,0.0,0.0,95,0.01,,-RA,0.29,VWS V14.01,2013-07-26 20:35:00,
2013-07-26 15:40:00,68.3,66.8,29.87,SE,129,0.0,0.0,95,0.01,,-RA,0.29,VWS V14.01,2013-07-26 20:40:00,
2013-07-26 15:45:00,68.4,66.9,29.86,SE,129,0.0,0.0,95,0.02,,-RA,0.30,VWS V14.01,2013-07-26 20:45:00,
2013-07-26 15:51:00,68.4,67.2,29.86,SE,129,0.0,0.0,96,0.02,,-RA,0.30,VWS V14.01,2013-07-26 20:51:00,
2013-07-26 15:56:00,68.5,67.0,29.86,SE,129,0.0,0.0,95,0.02,,-RA,0.30,VWS V14.01,2013-07-26 20:56:00,
2013-07-26 16:00:00,68.5,67.0,29.86,SE,129,0.0,0.0,95,0.02,,,0.30,VWS V14.01,2013-07-26 21:00:00,
2013-07-26 16:01:00,68.5,67.0,29.86,SE,129,0.0,0.0,95,0.01,,-RA,0.30,VWS V14.01,2013-07-26 21:01:00,
2013-07-26 16:06:00,68.5,67.0,29.86,SE,129,0.0,0.0,95,0.01,,-RA,0.30,VWS V14.01,2013-07-26 21:06:00,
2013-07-26 16:11:00,68.5,67.0,29.86,SE,129,0.0,0.0,95,0.01,,-RA,0.30,VWS V14.01,2013-07-26 21:11:00,
2013-07-26 16:17:00,68.5,67.3,29.86,SE,129,0.0,0.0,96,0.01,,-RA,0.30,VWS V14.01,2013-07-26 21:17:00,
2013-07-26 16:22:00,68.5,67.0,29.86,SE,128,0.0,0.0,95,0.02,,-RA,0.31,VWS V14.01,2013-07-26 21:22:00,
2013-07-26 16:27:00,68.5,67.0,29.86,SE,128,0.0,1.0,95,0.02,,-RA,0.31,VWS V14.01,2013-07-26 21:27:00,
2013-07-26 16:30:00,68.5,67.0,29.86,SE,128,0.0,1.0,95,0.02,,,0.31,VWS V14.01,2013-07-26 21:30:00,
2013-07-26 16:32:00,68.6,67.1,29.86,SE,128,0.0,0.0,95,0.02,,-RA,0.31,VWS V14.01,2013-07-26 21:32:00,
2013-07-26 16:37:00,68.7,67.5,29.86,ESE,117,0.0,1.0,96,0.02,,-RA,0.31,VWS V14.01,2013-07-26 21:37:00,
2013-07-26 16:42:00,68.8,67.6,29.86,ESE,116,0.0,1.0,96,0.02,,-RA,0.31,VWS V14.01,2013-07-26 21:42:00,
2013-07-26 16:47:00,68.7,67.2,29.86,ESE,116,0.0,1.0,95,0.02,,-RA,0.31,VWS V14.01,2013-07-26 21:47:00,
2013-07-26 16:52:00,68.6,67.1,29.86,SE,126,1.0,1.0,95,0.02,,-RA,0.31,VWS V14.01,2013-07-26 21:52:00,
2013-07-26 16:57:00,68.4,66.9,29.86,ESE,114,0.0,1.0,95,0.02,,-RA,0.31,VWS V14.01,2013-07-26 21:57:00,
2013-07-26 17:00:00,68.4,66.9,29.86,ESE,114,0.0,1.0,95,0.03,,,0.32,VWS V14.01,2013-07-26 22:00:00,
2013-07-26 17:02:00,68.3,66.8,29.86,SE,133,0.0,1.0,95,0.02,,-RA,0.32,VWS V14.01,2013-07-26 22:02:00,
2013-07-26 17:08:00,68.2,66.7,29.85,SE,133,0.0,1.0,95,0.02,,-RA,0.32,VWS V14.01,2013-07-26 22:08:00,
2013-07-26 17:13:00,68.2,67.0,29.85,SSE,165,0.0,1.0,96,0.02,,-RA,0.32,VWS V14.01,2013-07-26 22:13:00,
2013-07-26 17:18:00,68.1,66.6,29.85,SSE,165,0.0,1.0,95,0.02,,-RA,0.32,VWS V14.01,2013-07-26 22:18:00,
2013-07-26 17:23:00,68.1,66.6,29.85,SSE,165,0.0,1.0,95,0.03,,-RA,0.33,VWS V14.01,2013-07-26 22:23:00,
2013-07-26 17:28:00,68.1,66.9,29.85,SE,128,0.0,1.0,96,0.03,,-RA,0.33,VWS V14.01,2013-07-26 22:28:00,
2013-07-26 17:30:00,68.0,66.5,29.85,SE,128,0.0,1.0,95,0.03,,,0.33,VWS V14.01,2013-07-26 22:30:00,
2013-07-26 17:33:00,68.0,66.5,29.85,SSE,167,0.0,1.0,95,0.02,,-RA,0.33,VWS V14.01,2013-07-26 22:33:00,
2013-07-26 17:38:00,67.9,66.7,29.85,SSE,162,0.0,1.0,96,0.02,,-RA,0.33,VWS V14.01,2013-07-26 22:38:00,
2013-07-26 17:43:00,67.9,66.7,29.85,SE,144,0.0,1.0,96,0.03,,-RA,0.34,VWS V14.01,2013-07-26 22:43:00,
2013-07-26 17:48:00,68.0,66.8,29.84,ESE,123,0.0,1.0,96,0.03,,-RA,0.34,VWS V14.01,2013-07-26 22:48:00,
2013-07-26 17:53:00,68.1,66.9,29.84,ESE,123,0.0,1.0,96,0.03,,-RA,0.34,VWS V14.01,2013-07-26 22:53:00,
2013-07-26 17:58:00,68.2,67.0,29.84,ESE,113,0.0,2.0,96,0.03,,-RA,0.34,VWS V14.01,2013-07-26 22:58:00,
2013-07-26 18:00:00,68.2,67.0,29.84,ESE,113,0.0,2.0,96,0.03,,,0.34,VWS V14.01,2013-07-26 23:00:00,
2013-07-26 18:04:00,68.2,67.0,29.84,ESE,113,0.0,0.0,96,0.02,,-RA,0.34,VWS V14.01,2013-07-26 23:04:00,
2013-07-26 18:09:00,68.2,67.0,29.84,ESE,113,0.0,0.0,96,0.02,,-RA,0.34,VWS V14.01,2013-07-26 23:09:00,
2013-07-26 18:14:00,68.3,67.1,29.84,ESE,113,0.0,0.0,96,0.02,,-RA,0.34,VWS V14.01,2013-07-26 23:14:00,
2013-07-26 18:19:00,68.3,67.1,29.84,ESE,113,0.0,0.0,96,0.02,,-RA,0.34,VWS V14.01,2013-07-26 23:19:00,
2013-07-26 18:24:00,68.3,67.1,29.84,ESE,113,0.0,0.0,96,0.02,,-RA,0.34,VWS V14.01,2013-07-26 23:24:00,
2013-07-26 18:29:00,68.3,67.1,29.83,ESE,113,0.0,0.0,96,0.02,,-RA,0.34,VWS V14.01,2013-07-26 23:29:00,
2013-07-26 18:30:00,68.3,67.1,29.83,ESE,113,0.0,0.0,96,0.02,,,0.34,VWS V14.01,2013-07-26 23:30:00,
2013-07-26 18:34:00,68.3,67.1,29.83,ESE,113,0.0,0.0,96,0.01,,-RA,0.34,VWS V14.01,2013-07-26 23:34:00,
2013-07-26 18:39:00,68.2,67.0,29.83,ESE,113,0.0,0.0,96,0.01,,-RA,0.34,VWS V14.01,2013-07-26 23:39:00,
2013-07-26 18:44:00,68.1,66.9,29.83,ESE,113,0.0,0.0,96,0.01,,-RA,0.34,VWS V14.01,2013-07-26 23:44:00,
2013-07-26 18:49:00,68.1,66.9,29.82,ESE,113,0.0,0.0,96,0.01,,-RA,0.34,VWS V14.01,2013-07-26 23:49:00,
2013-07-26 18:54:00,68.0,66.8,29.82,ESE,113,0.0,0.0,96,0.01,,-RA,0.34,VWS V14.01,2013-07-26 23:54:00,
2013-07-26 18:59:00,67.9,66.7,29.82,ESE,113,0.0,0.0,96,0.00,,-RA,0.34,VWS V14.01,2013-07-26 23:59:00,
2013-07-26 19:00:00,68.0,66.8,29.82,ESE,113,0.0,0.0,96,0.01,,,0.34,VWS V14.01,2013-07-27 00:00:00,
2013-07-26 19:05:00,68.0,66.8,29.82,ESE,115,0.0,3.0,96,0.00,,-RA,0.34,VWS V14.01,2013-07-27 00:05:00,
2013-07-26 19:10:00,68.0,66.8,29.82,ESE,115,0.0,3.0,96,0.00,,-RA,0.34,VWS V14.01,2013-07-27 00:10:00,
2013-07-26 19:15:00,68.1,66.9,29.82,ESE,115,0.0,3.0,96,0.00,,-RA,0.34,VWS V14.01,2013-07-27 00:15:00,
2013-07-26 19:20:00,68.1,66.9,29.82,ESE,115,0.0,3.0,96,0.00,,-RA,0.34,VWS V14.01,2013-07-27 00:20:00,
2013-07-26 19:25:00,68.2,67.0,29.82,ESE,115,0.0,3.0,96,0.00,,-RA,0.34,VWS V14.01,2013-07-27 00:25:00,
2013-07-26 19:30:00,68.3,67.1,29.82,ESE,115,0.0,0.0,96,0.00,,-RA,0.34,VWS V14.01,2013-07-27 00:30:00,
2013-07-26 19:35:00,68.3,67.1,29.82,ESE,115,0.0,0.0,96,0.00,,-RA,0.34,VWS V14.01,2013-07-27 00:35:00,
2013-07-26 19:40:00,68.3,67.1,29.81,ESE,115,0.0,0.0,96,0.00,,-RA,0.34,VWS V14.01,2013-07-27 00:40:00,
2013-07-26 19:45:00,68.2,67.0,29.81,ESE,115,0.0,0.0,96,0.00,,-RA,0.34,VWS V14.01,2013-07-27 00:45:00,
2013-07-26 19:50:00,68.3,67.1,29.81,ESE,115,0.0,0.0,96,0.00,,-RA,0.34,VWS V14.01,2013-07-27 00:50:00,
2013-07-26 19:55:00,68.2,67.0,29.81,ESE,115,0.0,0.0,96,0.00,,-RA,0.34,VWS V14.01,2013-07-27 00:55:00,
2013-07-26 20:00:00,68.2,67.0,29.81,ESE,115,0.0,0.0,96,0.00,,,0.34,VWS V14.01,2013-07-27 01:00:00,
2013-07-26 20:05:00,68.2,67.0,29.81,ESE,115,0.0,0.0,96,0.00,,,0.34,VWS V14.01,2013-07-27 01:05:00,
2013-07-26 20:10:00,68.2,67.0,29.81,ESE,115,0.0,0.0,96,0.00,,,0.34,VWS V14.01,2013-07-27 01:10:00,
2013-07-26 20:15:00,68.1,66.9,29.81,ESE,115,0.0,0.0,96,0.00,,,0.34,VWS V14.01,2013-07-27 01:15:00,
2013-07-26 20:21:00,68.1,66.9,29.81,ESE,115,0.0,0.0,96,0.00,,,0.34,VWS V14.01,2013-07-27 01:21:00,
2013-07-26 20:26:00,68.1,66.9,29.81,ESE,115,0.0,0.0,96,0.00,,,0.34,VWS V14.01,2013-07-27 01:26:00,
2013-07-26 20:30:00,68.0,66.8,29.81,ESE,115,0.0,0.0,96,0.00,,,0.34,VWS V14.01,2013-07-27 01:30:00,
2013-07-26 20:31:00,68.0,66.8,29.80,ESE,115,0.0,0.0,96,0.00,,,0.34,VWS V14.01,2013-07-27 01:31:00,
2013-07-26 20:36:00,68.0,66.8,29.80,ESE,115,0.0,0.0,96,0.00,,,0.34,VWS V14.01,2013-07-27 01:36:00,
2013-07-26 20:41:00,67.9,66.7,29.80,ESE,115,0.0,0.0,96,0.00,,,0.34,VWS V14.01,2013-07-27 01:41:00,
2013-07-26 20:47:00,67.8,66.6,29.80,ESE,115,0.0,0.0,96,0.00,,,0.34,VWS V14.01,2013-07-27 01:47:00,
2013-07-26 20:52:00,67.7,66.5,29.80,ESE,115,0.0,0.0,96,0.00,,,0.34,VWS V14.01,2013-07-27 01:52:00,
2013-07-26 20:57:00,67.7,66.5,29.80,ESE,115,0.0,0.0,96,0.00,,,0.34,VWS V14.01,2013-07-27 01:57:00,
2013-07-26 21:00:00,67.6,66.4,29.81,ESE,115,0.0,0.0,96,0.00,,,0.34,VWS V14.01,2013-07-27 02:00:00,
2013-07-26 21:02:00,67.6,66.4,29.81,ESE,115,1.0,1.0,96,0.00,,,0.34,VWS V14.01,2013-07-27 02:02:00,
2013-07-26 21:07:00,67.5,66.3,29.81,NNW,346,0.0,1.0,96,0.00,,,0.34,VWS V14.01,2013-07-27 02:07:00,
2013-07-26 21:12:00,67.5,66.6,29.81,NNW,346,0.0,1.0,97,0.00,,,0.34,VWS V14.01,2013-07-27 02:12:00,
2013-07-26 21:17:00,67.5,66.6,29.81,NNW,346,0.0,1.0,97,0.00,,,0.34,VWS V14.01,2013-07-27 02:17:00,
2013-07-26 21:23:00,67.5,66.6,29.82,NNW,346,0.0,1.0,97,0.00,,,0.34,VWS V14.01,2013-07-27 02:23:00,
2013-07-26 21:28:00,67.5,66.6,29.82,NNW,346,0.0,1.0,97,0.00,,,0.34,VWS V14.01,2013-07-27 02:28:00,
2013-07-26 21:30:00,67.5,66.6,29.82,NNW,346,0.0,1.0,97,0.00,,,0.34,VWS V14.01,2013-07-27 02:30:00,
2013-07-26 21:33:00,67.6,66.7,29.83,NNW,346,0.0,0.0,97,0.00,,,0.34,VWS V14.01,2013-07-27 02:33:00,
2013-07-26 21:38:00,67.7,66.8,29.83,NNW,346,0.0,0.0,97,0.00,,,0.34,VWS V14.01,2013-07-27 02:38:00,
2013-07-26 21:43:00,67.7,66.8,29.83,NNW,346,0.0,0.0,97,0.00,,,0.34,VWS V14.01,2013-07-27 02:43:00,
2013-07-26 21:48:00,67.7,66.8,29.84,NNW,346,0.0,0.0,97,0.00,,,0.34,VWS V14.01,2013-07-27 02:48:00,
2013-07-26 21:53:00,67.6,66.7,29.84,NNW,346,0.0,0.0,97,0.00,,,0.34,VWS V14.01,2013-07-27 02:53:00,
2013-07-26 21:58:00,67.6,66.7,29.84,NNW,346,0.0,0.0,97,0.00,,,0.34,VWS V14.01,2013-07-27 02:58:00,
2013-07-26 22:00:00,67.6,66.7,29.84,NNW,346,0.0,0.0,97,0.00,,,0.34,VWS V14.01,2013-07-27 03:00:00,
2013-07-26 22:03:00,67.6,66.7,29.84,NNW,346,0.0,0.0,97,0.00,,,0.34,VWS V14.01,2013-07-27 03:03:00,
2013-07-26 22:08:00,67.6,66.7,29.83,NNW,346,0.0,0.0,97,0.00,,,0.34,VWS V14.01,2013-07-27 03:08:00,
2013-07-26 22:13:00,67.5,66.6,29.83,NNW,346,0.0,0.0,97,0.00,,,0.34,VWS V14.01,2013-07-27 03:13:00,
2013-07-26 22:19:00,67.5,66.6,29.83,NNW,346,0.0,0.0,97,0.00,,,0.34,VWS V14.01,2013-07-27 03:19:00,
2013-07-26 22:24:00,67.5,66.6,29.83,North,355,0.0,0.0,97,0.00,,,0.34,VWS V14.01,2013-07-27 03:24:00,
2013-07-26 22:29:00,67.5,66.6,29.83,North,355,0.0,0.0,97,0.00,,,0.34,VWS V14.01,2013-07-27 03:29:00,
2013-07-26 22:30:00,67.5,66.6,29.83,North,355,0.0,0.0,97,0.00,,,0.34,VWS V14.01,2013-07-27 03:30:00,
2013-07-26 22:34:00,67.5,66.6,29.83,North,355,0.0,0.0,97,0.00,,,0.34,VWS V14.01,2013-07-27 03:34:00,
2013-07-26 22:39:00,67.4,66.5,29.83,North,355,0.0,0.0,97,0.00,,,0.34,VWS V14.01,2013-07-27 03:39:00,
2013-07-26 22:44:00,67.4,66.5,29.83,North,355,1.0,1.0,97,0.00,,,0.34,VWS V14.01,2013-07-27 03:44:00,
2013-07-26 22:49:00,67.4,66.5,29.83,North,355,0.0,1.0,97,0.00,,,0.34,VWS V14.01,2013-07-27 03:49:00,
2013-07-26 22:54:00,67.3,66.4,29.83,SW,233,0.0,1.0,97,0.00,,,0.34,VWS V14.01,2013-07-27 03:54:00,
2013-07-26 22:59:00,67.2,66.3,29.83,SW,216,0.0,0.0,97,0.00,,,0.34,VWS V14.01,2013-07-27 03:59:00,
2013-07-26 23:00:00,67.2,66.3,29.83,SW,216,0.0,1.0,97,0.00,,,0.34,VWS V14.01,2013-07-27 04:00:00,
2013-07-26 23:01:00,67.2,66.3,29.83,SW,216,0.0,0.0,97,0.00,,,0.34,VWS V14.01,2013-07-27 04:01:00,
2013-07-26 23:02:00,67.2,66.3,29.83,SW,216,0.0,0.0,97,0.00,,,0.34,VWS V14.01,2013-07-27 04:02:00,
2013-07-26 23:03:00,67.2,66.3,29.83,SW,216,0.0,0.0,97,0.00,,,0.34,VWS V14.01,2013-07-27 04:03:00,
2013-07-26 23:08:00,67.1,66.2,29.83,SW,216,0.0,0.0,97,0.00,,,0.34,VWS V14.01,2013-07-27 04:08:00,
2013-07-26 23:13:00,67.0,66.1,29.83,SW,216,0.0,0.0,97,0.00,,,0.34,VWS V14.01,2013-07-27 04:13:00,
2013-07-26 23:18:00,67.0,66.1,29.83,SW,216,0.0,1.0,97,0.00,,,0.34,VWS V14.01,2013-07-27 04:18:00,
2013-07-26 23:23:00,66.9,66.0,29.83,SW,216,0.0,1.0,97,0.00,,,0.34,VWS V14.01,2013-07-27 04:23:00,
2013-07-26 23:28:00,66.9,66.0,29.84,SW,216,0.0,1.0,97,0.00,,,0.34,VWS V14.01,2013-07-27 04:28:00,
2013-07-26 23:30:00,66.9,66.0,29.84,SW,216,0.0,1.0,97,0.00,,,0.34,VWS V14.01,2013-07-27 04:30:00,
2013-07-26 23:33:00,66.9,66.0,29.84,SW,216,0.0,0.0,97,0.00,,,0.34,VWS V14.01,2013-07-27 04:33:00,
2013-07-26 23:38:00,66.8,65.9,29.84,SW,216,0.0,0.0,97,0.00,,,0.34,VWS V14.01,2013-07-27 04:38:00,
2013-07-26 23:43:00,66.8,65.9,29.84,SW,216,0.0,0.0,97,0.00,,,0.34,VWS V14.01,2013-07-27 04:43:00,
2013-07-26 23:48:00,66.8,65.9,29.84,SW,216,0.0,0.0,97,0.00,,,0.34,VWS V14.01,2013-07-27 04:48:00,
2013-07-26 23:54:00,66.8,66.2,29.84,SW,216,0.0,0.0,98,0.00,,,0.34,VWS V14.01,2013-07-27 04:54:00,
2013-07-26 23:59:00,66.7,66.1,29.84,SW,216,0.0,0.0,98,0.00,,,0.34,VWS V14.01,2013-07-27 04:59:00,